Regional Weather Roundup
Issued by NWS Northern Indiana

Home | Current Version | Previous Version | Text Only | Print | Product List | Glossary Off
Versions: 1 2 3 4 5 6 7 8 9 10 11 12 13 14 15 16 17 18 19 20 21 22 23 24 25 26 27 28 29 30 31 32 33 34 35 36 37 38 39 40 41 42 43 44 45 46 47 48 49 50

000
ASUS43 KIWX 192100
RWRIWX

KIWX WEATHER ROUNDUP
NATIONAL WEATHER SERVICE NORTHERN INDIANA
500 PM EDT SUN APR 19 2015

NOTE: "FAIR" INDICATES FEW OR NO CLOUDS BELOW 12,000 FEET WITH NO
SIGNIFICANT WEATHER AND/OR OBSTRUCTIONS TO VISIBILITY.

* THESE STATIONS ARE NOT UNDER NWS QUALITY CONTROL. THEY ALSO MAY NOT
  REPORT WEATHER SUCH AS PRECIPITATION OR FOG.

INZ001>027-192200-
NORTHERN INDIANA

CITY           SKY/WX    TMP DP  RH WIND       PRES   REMARKS
GARY*          LGT RAIN  59  48  67 SE12      29.56F
VALPARAISO     RAIN      54  52  94 E14       29.55F FOG
SOUTH BEND     RAIN      56  50  80 E13G21    29.59F
ELKHART*       LGT RAIN  55  48  76 E16G22    29.60F
GOSHEN         LGT RAIN  53  47  79 E22G31    29.60F
ANGOLA*        PTSUNNY   52  46  82 E15       29.64F
FORT WAYNE     LGT RAIN  52  49  89 NE21      29.59F FOG
PERU/GRISSOM   LGT RAIN  56  55  96 NE14      29.50F FOG

$$
INZ028>050-192200-
CENTRAL INDIANA

CITY           SKY/WX    TMP DP  RH WIND       PRES   REMARKS
LAFAYETTE      LGT RAIN  56  55  97 E13       29.49F FOG
KOKOMO*        CLOUDY    57  54  88 NE14      29.51F
MUNCIE*        RAIN      62  60  93 SE14      29.50F FOG
INDIANAPOLIS   LGT RAIN  61  59  93 NE7       29.44F FOG

$$
MIZ043>046-050>051-056>058-064>065-071>073-077>080-192200-
SOUTHWEST LOWER MICHIGAN

CITY           SKY/WX    TMP DP  RH WIND       PRES   REMARKS
BATTLE CREEK   LGT RAIN  63  42  46 SE14G24   29.66F
BENTON HARBOR  LGT RAIN  59  50  72 E15       29.59F
COLDWATER*     HVY RAIN  53  46  77 E12G22    29.66F
HILLSDALE*     LGT RAIN  53  48  82 E12       29.69F
HOLLAND        CLOUDY    69  37  30 E16G23    29.62F
GRAND RAPIDS   CLOUDY    66  35  31 E21G30    29.65F
KALAMAZOO      LGT RAIN  62  48  60 E6        29.65F
STURGIS*       RAIN      54  48  82 E14       29.64F
THREE RIVERS*  LGT RAIN  58  49  71 E8        29.64F

$$
OHZ001>008-015>018-024>025-192200-
NORTHWEST OHIO

CITY           SKY/WX    TMP DP  RH WIND       PRES   REMARKS
DEFIANCE       LGT RAIN  51  46  83 E15G22    29.66F
FINDLAY        RAIN      63  55  75 SE21G32   29.66F
TOLEDO EXPRESS LGT RAIN  47  40  76 E13G23    29.71F
TOLEDO METCALF LGT RAIN  49  38  65 NE14      29.72F
LIMA           LGT RAIN  62  58  86 E17G25    29.61F FOG

$$
AND FOR LAKE MICHIGAN COASTAL AND OPEN LAKE BUOY OBSERVATIONS

STATION/POSITION TEMP    WIND        PRES    VSBY  WAVE
                 AIR SEA DIR/SP/G                  HT/PER
                 (F)     (DEG/KT/KT) (MB)    (MI)  (FT/S)
CALUMET HARBOR    49     340/  7/ 10   N/A
MICHIGAN CITY     61     100/ 11/ 15   N/A
BURNS HARBOR      57     100/  7/ 13 1002.0S
SAINT JOSEPH      68     120/  2/  9 1003.7F
MICHIGAN CITY     51 44  110/  8/ 10   N/A           2/ 5

$$
&&


USA.gov is the U.S. government's official web portal to all federal, state and local government web resources and services.